period_start,C,m1,H,J0,J1,J2,J3,J4,J5,JA,JB,JC,JD,JJ,JK,JN,#
2017-11-18 00:04:57,0.05,0.91,0.00,20.05,23.55,26.85,14.26,48.07,1021.50,2045.00,3100.18,2882.06,3256.14,600.54,605.43,14.42,0000 0000 0000 0000 000000
2017-11-18 00:09:58,0.00,0.91,0.00,20.05,23.55,26.85,14.14,48.18,1021.50,2045.00,3100.00,2881.98,3255.88,599.85,604.78,14.47,0000 0000 0000 0000 000000
2017-11-18 00:14:59,0.03,0.91,0.00,20.04,23.55,26.85,14.20,48.17,1021.50,2045.00,3099.54,2881.78,3255.14,600.20,605.10,14.52,0000 0000 0000 0000 000000
2017-11-18 00:20:01,0.02,0.91,0.00,20.03,23.54,26.84,14.14,48.11,1021.50,2045.00,3099.02,2881.17,3254.99,599.96,605.01,14.57,0000 0000 0000 0000 000000
2017-11-18 00:25:02,0.01,0.91,0.00,20.03,23.53,26.86,14.17,48.16,1021.50,2045.00,3098.80,2881.00,3254.66,600.01,604.79,14.62,0000 0000 0000 0000 000000
2017-11-18 00:30:03,0.02,0.92,0.00,20.02,23.52,26.86,14.12,48.27,1021.50,2045.00,3098.05,2880.99,3254.02,599.89,604.90,14.67,0000 0000 0000 0000 000000
2017-11-18 00:35:04,0.01,0.92,0.00,20.01,23.52,26.86,14.12,48.19,1021.50,2044.99,3097.59,2880.94,3253.95,600.02,605.01,14.72,0000 0000 0000 0000 000000
2017-11-18 00:40:05,0.04,0.92,0.00,19.99,23.52,26.85,14.10,48.17,1021.45,2044.99,3097.01,2880.24,3253.21,599.96,604.98,14.77,0000 0000 0000 0000 000000
2017-11-18 00:45:07,0.01,0.92,0.00,19.99,23.52,26.84,14.19,48.11,1021.37,2044.99,3096.81,2880.04,3253.00,599.97,604.93,14.82,0000 0000 0000 0000 000000
2017-11-18 00:50:08,0.01,0.92,0.00,19.97,23.50,26.81,14.18,48.16,1021.37,2044.99,3096.07,2880.00,3252.96,599.94,604.84,14.87,0000 0000 0000 0000 000000
2017-11-18 00:55:09,0.01,0.92,0.00,19.98,23.50,26.82,14.11,48.16,1021.19,2044.99,3095.98,2880.00,3252.52,600.16,604.90,14.93,0000 0000 0000 0000 000000
2017-11-18 01:00:10,0.01,0.92,0.00,19.96,23.50,26.82,14.13,48.18,1021.17,2044.99,3095.56,2879.99,3252.03,600.02,604.93,14.98,0000 0000 0000 0000 000000
2017-11-18 01:05:12,0.00,0.92,0.00,19.94,23.49,26.79,14.17,48.20,1021.29,2044.99,3095.03,2879.98,3252.00,599.86,604.89,15.03,0000 0000 0000 0000 000000
2017-11-18 01:10:13,0.01,0.92,0.00,19.94,23.48,26.79,14.21,48.17,1021.20,2045.00,3094.81,2879.78,3251.78,600.22,605.20,15.08,0000 0000 0000 0000 000000
2017-11-18 01:15:14,0.03,0.92,0.00,19.92,23.47,26.79,14.24,48.13,1021.15,2045.00,3094.12,2879.28,3251.12,600.01,605.01,15.13,0000 0000 0000 0000 000000
2017-11-18 01:20:16,0.00,0.92,0.00,19.92,23.47,26.81,14.20,48.08,1021.06,2045.00,3093.98,2879.07,3251.00,600.03,604.95,15.18,0000 0000 0000 0000 000000
2017-11-18 01:25:17,0.01,0.93,0.00,19.91,23.47,26.78,14.25,48.06,1021.02,2045.01,3093.44,2879.01,3250.97,600.34,605.38,15.23,0000 0000 0000 0000 000000
2017-11-18 01:30:19,0.01,0.93,0.00,19.92,23.45,26.77,14.16,47.97,1021.01,2045.00,3093.01,2879.00,3250.72,600.05,604.99,15.28,0000 0000 0000 0000 000000
2017-11-18 01:35:20,0.01,0.93,0.00,19.91,23.45,26.77,14.18,48.00,1021.01,2045.00,3092.89,2879.00,3250.06,600.00,604.96,15.33,0000 0000 0000 0000 000000
2017-11-18 01:40:21,0.01,0.93,0.00,19.91,23.45,26.78,14.17,47.98,1021.01,2045.01,3092.11,2878.99,3249.99,599.92,604.78,15.38,0000 0000 0000 0000 000000
2017-11-18 01:45:23,0.00,0.93,0.00,19.90,23.43,26.73,14.36,48.04,1021.01,2045.03,3091.99,2878.98,3249.94,600.63,605.57,15.43,0000 0000 0000 0000 000000
2017-11-18 01:50:24,0.01,0.93,0.00,19.90,23.42,26.76,14.25,48.08,1021.01,2045.02,3091.88,2878.98,3249.64,600.36,605.22,15.48,0000 0000 0000 0000 000000
2017-11-18 01:55:25,0.02,0.93,0.00,19.90,23.42,26.71,14.16,48.00,1021.01,2045.03,3091.17,2878.97,3249.11,599.94,604.86,15.53,0000 0000 0000 0000 000000
2017-11-18 02:00:26,0.00,0.93,0.00,19.87,23.41,26.71,14.28,48.07,1021.01,2045.06,3091.00,2878.93,3249.01,600.13,605.11,15.58,0000 0000 0000 0000 000000
2017-11-18 02:05:27,0.03,0.93,0.00,19.85,23.40,26.69,14.25,48.13,1020.97,2045.10,3090.51,2878.58,3248.99,600.06,605.08,15.63,0000 0000 0000 0000 000000
2017-11-18 02:10:28,0.02,0.93,0.00,19.84,23.40,26.68,14.15,48.23,1020.80,2045.10,3089.98,2878.04,3248.33,600.14,605.19,15.68,0000 0000 0000 0000 000000
2017-11-18 02:15:29,0.02,0.93,0.00,19.84,23.39,26.68,14.13,48.15,1020.64,2045.14,3089.31,2878.00,3248.01,600.12,604.94,15.73,0000 0000 0000 0000 000000
2017-11-18 02:20:30,0.01,0.93,0.00,19.83,23.37,26.68,14.24,48.08,1020.66,2045.18,3089.00,2878.00,3247.99,599.98,604.79,15.78,0000 0000 0000 0000 000000
2017-11-18 02:25:32,0.01,0.93,0.00,19.81,23.37,26.67,14.18,48.15,1020.59,2045.14,3088.57,2877.99,3247.69,600.08,604.97,15.83,0000 0000 0000 0000 000000
2017-11-18 02:30:33,0.02,0.94,0.00,19.81,23.37,26.65,14.24,48.22,1020.65,2045.31,3088.02,2877.97,3247.11,600.35,605.21,15.88,0000 0000 0000 0000 000000
2017-11-18 02:35:34,0.01,0.94,0.00,19.83,23.36,26.69,14.11,48.17,1020.65,2045.38,3087.85,2877.93,3247.00,599.97,604.70,15.93,0000 0000 0000 0000 000000
2017-11-18 02:40:36,0.04,0.94,0.00,19.81,23.35,26.67,14.08,48.15,1020.58,2045.49,3087.09,2877.48,3246.92,599.48,604.41,15.98,0000 0000 0000 0000 000000
2017-11-18 02:45:37,0.01,0.94,0.00,19.79,23.35,26.65,14.19,48.23,1020.54,2045.32,3086.82,2877.03,3246.15,599.92,604.87,16.03,0000 0000 0000 0000 000000
2017-11-18 02:50:39,0.05,0.94,0.00,19.79,23.34,26.61,14.12,48.11,1020.53,2045.58,3086.08,2877.01,3246.00,600.02,604.87,16.08,0000 0000 0000 0000 000000
2017-11-18 02:55:40,0.00,0.94,0.00,19.78,23.33,26.63,14.24,48.16,1020.52,2045.63,3085.92,2877.00,3245.96,600.09,604.99,16.13,0000 0000 0000 0000 000000
2017-11-18 03:00:41,0.05,0.94,0.00,19.80,23.32,26.63,14.26,48.22,1020.52,2045.89,3085.18,2876.99,3245.45,600.13,605.00,16.18,0000 0000 0000 0000 000000
2017-11-18 03:05:43,0.01,0.95,0.00,19.76,23.32,26.60,14.06,48.13,1020.52,2045.96,3084.89,2876.97,3245.02,599.51,604.60,16.23,0000 0000 0000 0000 000000
2017-11-18 03:10:44,0.02,0.95,0.00,19.76,23.31,26.63,14.20,48.18,1020.52,2045.96,3084.12,2876.68,3244.99,600.03,605.05,16.28,0000 0000 0000 0000 000000
2017-11-18 03:15:45,0.04,0.95,0.00,19.75,23.30,26.61,14.18,48.17,1020.52,2045.96,3083.48,2876.05,3244.24,599.83,604.91,16.33,0000 0000 0000 0000 000000
2017-11-18 03:20:46,0.00,0.95,0.00,19.75,23.29,26.61,14.23,48.14,1020.52,2045.97,3082.94,2876.00,3244.00,600.22,605.21,16.38,0000 0000 0000 0000 000000
2017-11-18 03:25:48,0.02,0.95,0.00,19.74,23.29,26.58,14.19,48.18,1020.52,2045.98,3082.16,2876.00,3243.82,599.98,605.08,16.43,0000 0000 0000 0000 000000
2017-11-18 03:30:49,0.03,0.95,0.00,19.70,23.28,26.59,14.18,48.17,1020.51,2045.97,3081.77,2875.73,3243.10,600.21,605.10,16.48,0000 0000 0000 0000 000000
2017-11-18 03:35:50,0.02,0.95,0.00,19.71,23.27,26.56,14.11,48.17,1020.49,2045.98,3081.07,2875.19,3242.98,599.98,605.00,16.53,0000 0000 0000 0000 000000
2017-11-18 03:40:51,0.02,0.95,0.00,19.67,23.27,26.57,14.17,48.18,1020.49,2045.98,3080.75,2875.01,3242.51,599.94,605.08,16.58,0000 0000 0000 0000 000000
2017-11-18 03:45:53,0.01,0.96,0.00,19.69,23.25,26.57,14.15,48.16,1020.42,2045.99,3080.04,2875.00,3242.02,599.78,604.76,16.63,0000 0000 0000 0000 000000
2017-11-18 03:50:54,0.01,0.96,0.00,19.68,23.24,26.56,14.25,48.24,1020.33,2045.99,3079.70,2874.92,3241.80,600.01,604.96,16.68,0000 0000 0000 0000 000000
2017-11-18 03:55:55,0.04,0.96,0.00,19.68,23.24,26.56,14.23,48.24,1020.23,2045.98,3079.00,2874.28,3241.05,600.13,605.02,16.73,0000 0000 0000 0000 000000
2017-11-18 04:00:57,0.01,0.96,0.00,19.67,23.23,26.49,14.16,48.28,1020.13,2045.99,3078.51,2874.07,3241.00,600.13,604.98,16.78,0000 0000 0000 0000 000000
2017-11-18 04:05:58,0.00,0.96,0.00,19.65,23.22,26.50,14.17,48.19,1020.07,2045.99,3078.02,2874.08,3240.92,599.83,604.72,16.83,0000 0000 0000 0000 000000
2017-11-18 04:10:59,0.02,0.96,0.00,19.66,23.22,26.49,14.14,48.24,1020.07,2045.99,3077.69,2874.01,3240.32,600.11,605.00,16.88,0000 0000 0000 0000 000000
2017-11-18 04:16:01,0.01,0.96,0.00,19.64,23.21,26.51,14.19,48.24,1020.06,2045.99,3077.03,2874.00,3240.00,600.16,605.08,16.93,0000 0000 0000 0000 000000
2017-11-18 04:21:02,0.01,0.96,0.00,19.64,23.20,26.51,14.25,48.23,1020.08,2045.99,3076.61,2874.00,3239.98,600.29,605.23,16.98,0000 0000 0000 0000 000000
2017-11-18 04:26:03,0.02,0.96,0.00,19.64,23.19,26.47,14.23,48.22,1020.05,2045.99,3076.01,2873.90,3239.46,599.95,604.87,17.03,0000 0000 0000 0000 000000
2017-11-18 04:31:04,0.04,0.96,0.00,19.63,23.19,26.48,14.29,48.31,1020.04,2045.99,3075.30,2873.14,3238.99,600.26,605.12,17.08,0000 0000 0000 0000 000000
2017-11-18 04:36:06,0.01,0.97,0.00,19.59,23.17,26.47,14.27,48.32,1020.04,2046.00,3074.89,2873.00,3238.47,600.13,605.14,17.13,0000 0000 0000 0000 000000
2017-11-18 04:41:07,0.02,0.97,0.00,19.57,23.17,26.48,14.18,48.28,1020.04,2046.00,3074.06,2872.98,3238.01,599.87,604.87,17.18,0000 0000 0000 0000 000000
2017-11-18 04:46:08,0.02,0.97,0.00,19.55,23.16,26.49,14.19,48.25,1020.04,2046.00,3073.59,2872.78,3237.84,600.20,605.44,17.23,0000 0000 0000 0000 000000
2017-11-18 04:51:09,0.03,0.97,0.00,19.52,23.15,26.43,14.14,48.28,1020.04,2046.00,3073.01,2872.22,3237.11,599.78,604.77,17.28,0000 0000 0000 0000 000000
2017-11-18 04:56:11,0.02,0.97,0.00,19.51,23.14,26.42,14.25,48.35,1020.04,2046.03,3072.44,2872.03,3237.00,600.04,605.25,17.33,0000 0000 0000 0000 000000
2017-11-18 05:01:12,0.01,0.97,0.00,19.52,23.13,26.44,14.16,48.23,1020.04,2046.03,3071.94,2872.00,3236.62,599.95,605.12,17.38,0000 0000 0000 0000 000000
2017-11-18 05:06:14,0.03,0.97,0.00,19.52,23.12,26.44,14.23,48.27,1020.04,2046.05,3071.12,2871.99,3236.04,600.21,605.33,17.43,0000 0000 0000 0000 000000
2017-11-18 05:11:15,0.03,0.97,0.00,19.51,23.12,26.42,14.21,48.36,1020.04,2046.10,3070.66,2871.63,3235.89,599.97,605.15,17.48,0000 0000 0000 0000 000000
2017-11-18 05:16:17,0.04,0.98,0.00,19.53,23.10,26.40,14.15,48.27,1020.04,2046.27,3070.02,2871.14,3235.23,600.01,605.18,17.53,0000 0000 0000 0000 000000
2017-11-18 05:21:18,0.03,0.98,0.00,19.50,23.09,26.40,14.17,48.25,1020.04,2046.33,3069.76,2871.02,3235.00,600.27,605.51,17.58,0000 0000 0000 0000 000000
2017-11-18 05:26:19,0.05,0.98,0.00,19.53,23.09,26.37,14.08,48.20,1020.03,2046.74,3069.03,2871.00,3234.88,599.80,604.89,17.63,0000 0000 0000 0000 000000
2017-11-18 05:31:20,0.02,0.98,0.00,19.51,23.08,26.37,14.19,48.13,1020.01,2046.89,3068.72,2870.99,3234.25,600.00,605.22,17.68,0000 0000 0000 0000 000000
2017-11-18 05:36:21,0.01,0.98,0.00,19.50,23.07,26.35,14.14,48.20,1019.97,2046.92,3068.03,2870.97,3234.00,599.77,605.01,17.74,0000 0000 0000 0000 000000
2017-11-18 05:41:23,0.03,0.98,0.00,19.50,23.07,26.36,14.20,48.13,1019.94,2046.95,3067.69,2870.57,3233.86,600.18,605.40,17.79,0000 0000 0000 0000 000000
2017-11-18 05:46:24,0.02,0.99,0.00,19.50,23.05,26.36,14.22,48.18,1019.93,2046.97,3067.04,2870.09,3233.12,599.95,605.13,17.84,0000 0000 0000 0000 000000
2017-11-18 05:51:26,0.01,0.99,0.00,19.51,23.04,26.33,14.27,48.20,1019.82,2046.97,3066.47,2870.00,3232.98,600.41,605.38,17.89,0000 0000 0000 0000 000000
2017-11-18 05:56:27,0.01,0.99,0.00,19.48,23.04,26.31,14.15,48.22,1019.72,2046.99,3066.00,2870.00,3232.56,599.82,604.92,17.94,0000 0000 0000 0000 000000
2017-11-18 06:01:28,0.02,0.99,0.00,19.46,23.03,26.34,14.25,48.19,1019.62,2046.99,3065.51,2869.98,3232.03,600.19,605.38,17.99,0000 0000 0000 0000 000000
2017-11-18 06:06:29,0.01,0.99,0.00,19.45,23.02,26.35,14.17,48.22,1019.58,2046.99,3065.00,2869.62,3231.91,599.81,604.71,18.04,0000 0000 0000 0000 000000
2017-11-18 06:11:30,0.04,0.99,0.00,19.44,23.02,26.32,14.19,48.18,1019.57,2046.99,3064.29,2869.10,3231.14,599.85,604.91,18.09,0000 0000 0000 0000 000000
2017-11-18 06:16:32,0.00,0.99,0.00,19.46,23.02,26.35,14.18,48.17,1019.57,2046.99,3063.99,2869.01,3230.99,599.92,604.97,18.14,0000 0000 0000 0000 000000
2017-11-18 06:21:33,0.02,0.99,0.00,19.45,23.00,26.35,14.12,48.14,1019.57,2046.99,3063.43,2869.00,3230.61,599.87,604.91,18.19,0000 0000 0000 0000 000000
2017-11-18 06:26:34,0.03,0.99,0.00,19.44,22.99,26.33,14.21,48.24,1019.56,2046.99,3062.67,2868.60,3230.00,599.80,604.97,18.24,0000 0000 0000 0000 000000
2017-11-18 06:31:36,0.03,1.00,0.00,19.45,22.99,26.31,14.30,48.18,1019.58,2046.99,3062.00,2868.05,3229.43,600.01,605.01,18.29,0000 0000 0000 0000 000000
2017-11-18 06:36:37,0.01,1.00,0.00,19.43,22.99,26.29,14.19,48.14,1019.60,2046.99,3061.15,2867.99,3228.99,599.88,605.02,18.34,0000 0000 0000 0000 000000
2017-11-18 06:41:38,0.05,1.00,0.00,19.44,22.97,26.25,14.06,47.97,1019.59,2046.99,3060.41,2867.59,3228.34,599.28,604.45,18.39,0000 0000 0000 0000 000000
2017-11-18 06:46:39,0.09,1.00,0.00,19.43,22.97,26.24,14.20,48.07,1019.58,2046.99,3058.59,2866.44,3227.00,600.11,605.20,18.44,0000 0000 0000 0000 000000
2017-11-18 06:51:41,0.07,1.01,0.00,19.45,22.97,26.31,14.11,48.02,1019.68,2046.99,3056.76,2865.17,3225.70,599.93,605.00,18.49,0000 0000 0000 0000 000000
2017-11-18 06:56:42,0.01,1.01,0.00,19.44,22.96,26.30,14.12,48.03,1019.85,2046.99,3056.03,2865.00,3225.03,599.96,605.22,18.54,0000 0000 0000 0000 000000
2017-11-18 07:01:43,0.01,1.01,0.00,19.45,22.95,26.29,14.10,47.98,1019.97,2046.99,3055.65,2864.99,3224.94,600.15,605.43,18.59,0000 0000 0000 0000 000000
2017-11-18 07:06:45,0.03,1.01,0.00,19.45,22.95,26.25,14.25,48.01,1019.98,2046.99,3055.03,2864.76,3224.24,600.15,605.34,18.64,0000 0000 0000 0000 000000
2017-11-18 07:11:46,0.02,1.01,0.00,19.45,22.94,26.28,14.30,48.06,1019.96,2046.99,3054.69,2864.19,3224.00,600.53,605.79,18.69,0000 0000 0000 0000 000000
2017-11-18 07:16:47,0.00,1.01,0.00,19.46,22.94,26.27,14.30,48.02,1019.93,2046.99,3054.06,2864.03,3223.94,600.19,605.45,18.74,0000 0000 0000 0000 000000
2017-11-18 07:21:48,0.02,1.02,0.00,19.44,22.94,26.20,14.07,48.02,1020.01,2046.99,3053.74,2864.00,3223.16,599.93,605.23,18.79,0000 0000 0000 0000 000000
2017-11-18 07:26:50,0.01,1.02,0.00,19.48,22.94,26.22,14.15,48.11,1020.01,2046.99,3053.03,2864.00,3223.00,599.99,605.34,18.84,0000 0000 0000 0000 000000
2017-11-18 07:31:51,0.00,1.02,0.00,19.47,22.94,26.23,14.10,48.10,1020.03,2046.99,3052.98,2863.98,3222.89,599.90,605.16,18.89,0000 0000 0000 0000 000000
2017-11-18 07:36:52,0.02,1.02,0.00,19.47,22.93,26.25,14.17,48.07,1020.03,2046.99,3052.60,2863.96,3222.34,599.98,605.32,18.94,0000 0000 0000 0000 000000
2017-11-18 07:41:53,0.01,1.02,0.00,19.48,22.93,26.23,14.12,48.03,1020.03,2046.99,3052.03,2863.84,3222.04,599.63,604.99,18.99,0000 0000 0000 0000 000000
2017-11-18 07:46:55,0.01,1.02,0.00,19.48,22.93,26.21,14.16,48.09,1020.03,2046.99,3051.99,2863.34,3222.00,599.90,605.07,19.04,0000 0000 0000 0000 000000
2017-11-18 07:51:56,0.02,1.02,0.00,19.51,22.93,26.22,14.24,48.07,1020.03,2046.99,3051.60,2863.15,3221.97,600.36,605.40,19.09,0000 0000 0000 0000 000000
2017-11-18 07:56:57,0.02,1.02,0.00,19.48,22.93,26.19,14.17,47.98,1020.03,2046.99,3051.02,2863.01,3221.41,599.92,605.17,19.14,0000 0000 0000 0000 000000
2017-11-18 08:01:59,0.01,1.02,0.00,19.49,22.93,26.24,14.13,47.96,1020.03,2046.99,3050.50,2863.00,3221.03,600.04,605.18,19.19,0000 0000 0000 0000 000000
2017-11-18 08:07:00,0.03,1.02,0.00,19.49,22.94,26.19,14.15,48.09,1020.03,2046.99,3049.65,2862.76,3220.80,599.81,605.02,19.24,0000 0000 0000 0000 000000
2017-11-18 08:12:02,0.04,1.03,0.00,19.53,22.94,26.14,14.17,48.08,1020.03,2047.01,3048.71,2862.04,3220.04,600.09,605.22,19.29,0000 0000 0000 0000 000000
2017-11-18 08:17:03,0.03,1.03,0.00,19.50,22.94,26.19,14.10,48.11,1020.03,2047.01,3047.75,2861.89,3219.40,599.55,604.73,19.34,0000 0000 0000 0000 000000
2017-11-18 08:22:04,0.02,1.03,0.00,19.52,22.94,26.19,14.22,48.14,1020.03,2047.00,3047.07,2861.49,3219.00,600.02,605.20,19.39,0000 0000 0000 0000 000000
2017-11-18 08:27:05,0.01,1.03,0.00,19.53,22.94,26.21,14.17,48.14,1020.03,2047.00,3047.00,2861.12,3218.97,600.00,605.12,19.44,0000 0000 0000 0000 000000
2017-11-18 08:32:06,0.02,1.03,0.00,19.55,22.94,26.16,14.23,48.12,1020.03,2047.00,3046.62,2861.02,3218.45,600.40,605.55,19.49,0000 0000 0000 0000 000000
2017-11-18 08:37:08,0.01,1.03,0.00,19.57,22.94,26.16,14.13,48.13,1020.03,2047.00,3046.02,2861.00,3218.01,599.46,604.74,19.54,0000 0000 0000 0000 000000
2017-11-18 08:42:09,0.00,1.03,0.00,19.53,22.94,26.17,14.16,48.12,1020.03,2047.00,3045.76,2861.00,3217.99,600.03,605.19,19.59,0000 0000 0000 0000 000000
2017-11-18 08:47:10,0.01,1.03,0.00,19.58,22.95,26.16,14.21,48.06,1020.03,2047.00,3045.03,2861.00,3217.74,599.91,604.93,19.64,0000 0000 0000 0000 000000
2017-11-18 08:52:11,0.01,1.03,0.00,19.57,22.95,26.24,14.17,48.09,1020.03,2047.00,3044.70,2860.98,3217.04,600.33,605.37,19.69,0000 0000 0000 0000 000000
2017-11-18 08:57:12,0.01,1.03,0.00,19.58,22.96,26.16,14.07,48.05,1020.03,2047.00,3044.03,2860.96,3216.99,599.70,604.74,19.74,0000 0000 0000 0000 000000
2017-11-18 09:02:14,0.03,1.03,0.00,19.60,22.97,26.09,14.17,47.98,1020.03,2047.00,3043.54,2860.74,3216.57,600.38,605.35,19.79,0000 0000 0000 0000 000000
2017-11-18 09:07:15,0.02,1.04,0.00,19.59,22.97,26.16,14.19,48.08,1020.03,2047.00,3042.99,2860.26,3216.02,600.00,604.96,19.84,0000 0000 0000 0000 000000
2017-11-18 09:12:16,0.02,1.04,0.00,19.59,22.97,26.20,14.23,48.02,1020.01,2047.00,3042.18,2860.01,3215.80,600.30,605.25,19.89,0000 0000 0000 0000 000000
2017-11-18 09:17:17,0.02,1.04,0.00,19.60,22.97,26.15,14.19,48.13,1019.99,2047.00,3041.40,2860.00,3215.07,599.98,604.99,19.94,0000 0000 0000 0000 000000
2017-11-18 09:22:18,0.00,1.04,0.00,19.62,22.97,26.14,14.12,48.08,1020.02,2047.00,3040.94,2859.96,3214.98,599.71,604.67,19.99,0000 0000 0000 0000 000000
2017-11-18 09:27:20,0.03,1.04,0.00,19.60,22.97,26.23,14.19,48.05,1020.03,2047.00,3040.21,2859.82,3214.51,600.10,604.99,20.04,0000 0000 0000 0000 000000
2017-11-18 09:32:20,0.02,1.04,0.00,19.60,22.98,26.21,14.19,48.07,1020.03,2047.00,3039.84,2859.24,3214.03,599.97,604.95,20.09,0000 0000 0000 0000 000000
2017-11-18 09:37:22,0.01,1.04,0.00,19.59,22.99,26.15,14.20,48.02,1020.03,2047.00,3039.05,2859.00,3213.95,599.83,604.83,20.14,0000 0000 0000 0000 000000
2017-11-18 09:42:23,0.03,1.05,0.00,19.60,22.99,26.18,14.12,47.91,1020.03,2047.00,3038.37,2859.00,3213.25,599.63,604.60,20.19,0000 0000 0000 0000 000000
2017-11-18 09:47:24,0.00,1.05,0.00,19.58,22.99,26.24,14.22,47.90,1020.03,2047.00,3037.95,2858.98,3213.00,599.87,604.94,20.24,0000 0000 0000 0000 000000
2017-11-18 09:52:26,0.02,1.05,0.00,19.60,22.99,26.19,14.18,47.88,1020.03,2047.00,3037.21,2858.96,3212.82,600.07,605.07,20.29,0000 0000 0000 0000 000000
2017-11-18 09:57:27,0.01,1.05,0.00,19.61,22.99,26.19,14.17,47.88,1020.03,2047.00,3036.98,2858.90,3212.22,599.99,604.97,20.34,0000 0000 0000 0000 000000
2017-11-18 10:02:28,0.03,1.05,0.00,19.61,22.99,26.22,14.24,47.94,1020.04,2047.00,3036.43,2858.40,3212.00,600.07,604.97,20.39,0000 0000 0000 0000 000000
2017-11-18 10:07:29,0.02,1.05,0.00,19.62,23.00,26.24,14.12,47.92,1020.05,2047.00,3035.98,2858.03,3211.71,599.94,604.72,20.44,0000 0000 0000 0000 000000
2017-11-18 10:12:31,0.02,1.05,0.00,19.62,23.00,26.25,14.13,47.96,1020.04,2047.00,3035.34,2858.00,3211.06,599.85,604.76,20.49,0000 0000 0000 0000 000000
2017-11-18 10:17:32,0.00,1.05,0.00,19.66,23.01,26.19,14.02,47.94,1020.04,2047.00,3034.98,2858.00,3210.99,599.83,604.74,20.54,0000 0000 0000 0000 000000
2017-11-18 10:22:33,0.02,1.05,0.00,19.63,23.02,26.26,14.14,47.92,1020.04,2047.00,3034.25,2858.00,3210.76,599.95,604.86,20.59,0000 0000 0000 0000 000000
2017-11-18 10:27:35,0.01,1.05,0.00,19.64,23.02,26.28,14.10,47.90,1020.05,2047.00,3033.80,2857.98,3210.10,599.81,604.82,20.64,0000 0000 0000 0000 000000
2017-11-18 10:32:36,0.01,1.05,0.00,19.64,23.02,26.26,14.08,47.98,1020.05,2047.00,3033.08,2857.96,3209.99,599.36,604.27,20.69,0000 0000 0000 0000 000000
2017-11-18 10:37:37,0.02,1.05,0.00,19.64,23.02,26.23,14.19,48.00,1020.06,2047.00,3032.73,2857.82,3209.57,599.96,604.89,20.74,0000 0000 0000 0000 000000
2017-11-18 10:42:38,0.02,1.06,0.00,19.64,23.02,26.28,14.16,47.92,1020.06,2047.00,3032.04,2857.40,3209.04,599.73,604.68,20.79,0000 0000 0000 0000 000000
2017-11-18 10:47:39,0.01,1.06,0.00,19.65,23.03,26.26,14.20,47.89,1020.06,2046.99,3031.52,2857.07,3208.97,599.92,604.90,20.84,0000 0000 0000 0000 000000
2017-11-18 10:52:40,0.01,1.06,0.00,19.67,23.04,26.26,14.13,47.87,1020.07,2046.99,3030.96,2857.03,3208.48,599.86,604.70,20.89,0000 0000 0000 0000 000000
2017-11-18 10:57:41,0.01,1.06,0.00,19.65,23.04,26.27,14.20,47.97,1020.26,2046.96,3030.16,2857.00,3208.01,600.35,605.36,20.94,0000 0000 0000 0000 000000
2017-11-18 11:02:42,0.01,1.06,0.00,19.67,23.04,26.25,14.20,47.92,1020.35,2046.96,3029.84,2857.00,3207.97,600.18,605.16,20.99,0000 0000 0000 0000 000000
2017-11-18 11:07:44,0.02,1.06,0.00,19.67,23.04,26.27,14.14,47.90,1020.39,2046.98,3029.07,2857.00,3207.29,599.72,604.82,21.04,0000 0000 0000 0000 000000
2017-11-18 11:12:45,0.01,1.06,0.00,19.69,23.05,26.29,14.24,47.96,1020.41,2046.96,3028.41,2856.99,3207.01,600.04,604.96,21.09,0000 0000 0000 0000 000000
2017-11-18 11:17:47,0.00,1.06,0.00,19.66,23.05,26.28,14.17,47.92,1020.49,2046.95,3027.91,2856.95,3206.88,600.00,605.14,21.14,0000 0000 0000 0000 000000
2017-11-18 11:22:48,0.03,1.06,0.00,19.69,23.06,26.29,14.10,47.92,1020.48,2046.95,3027.07,2856.80,3206.11,599.79,604.83,21.19,0000 0000 0000 0000 000000
2017-11-18 11:27:49,0.02,1.07,0.00,19.68,23.07,26.25,14.20,47.95,1020.51,2046.90,3026.51,2856.33,3205.97,599.80,604.87,21.24,0000 0000 0000 0000 000000
2017-11-18 11:32:50,-0.00,1.07,0.00,19.73,23.07,26.28,14.22,47.88,1020.51,2046.77,3025.93,2856.06,3205.51,600.04,604.94,21.29,0000 0000 0000 0000 000000
2017-11-18 11:37:51,0.02,1.07,0.00,19.69,23.07,26.27,14.08,47.86,1020.51,2046.75,3025.14,2856.03,3205.04,599.69,604.71,21.34,0000 0000 0000 0000 000000
2017-11-18 11:42:53,-0.01,1.07,0.00,19.71,23.07,26.23,14.20,47.86,1020.52,2046.49,3024.60,2856.00,3204.97,600.05,605.05,21.39,0000 0000 0000 0000 000000
2017-11-18 11:47:55,-0.00,1.07,0.00,19.74,23.08,26.20,14.15,47.91,1020.52,2046.38,3024.01,2856.00,3204.47,599.86,604.90,21.44,0000 0000 0000 0000 000000
2017-11-18 11:52:56,0.01,1.07,0.00,19.74,23.09,26.25,14.21,47.92,1020.52,2046.21,3023.33,2856.00,3204.02,599.88,604.87,21.49,0000 0000 0000 0000 000000
2017-11-18 11:57:57,0.00,1.07,0.00,19.70,23.09,26.29,14.18,47.88,1020.52,2046.17,3022.80,2855.98,3203.99,599.98,604.94,21.54,0000 0000 0000 0000 000000
2017-11-18 12:02:58,0.02,1.07,0.00,19.75,23.09,26.26,14.17,47.90,1020.52,2046.16,3022.04,2855.98,3203.54,599.77,604.75,21.59,0000 0000 0000 0000 000000
2017-11-18 12:07:59,0.01,1.07,0.00,19.74,23.09,26.28,14.20,48.02,1020.52,2046.09,3021.52,2855.96,3203.04,599.88,604.94,21.64,0000 0000 0000 0000 000000
2017-11-18 12:13:01,0.01,1.07,0.00,19.76,23.10,26.29,14.13,47.91,1020.52,2046.09,3020.97,2855.92,3203.00,600.05,605.00,21.69,0000 0000 0000 0000 000000
2017-11-18 12:18:02,0.03,1.07,0.00,19.72,23.10,26.31,14.14,47.97,1020.52,2046.05,3020.16,2855.52,3202.72,599.91,604.97,21.74,0000 0000 0000 0000 000000
2017-11-18 12:23:03,0.02,1.07,0.00,19.74,23.11,26.25,14.09,47.95,1020.52,2046.01,3019.64,2855.05,3202.03,599.89,604.83,21.80,0000 0000 0000 0000 000000
2017-11-18 12:28:05,0.01,1.07,0.00,19.72,23.12,26.29,14.14,47.95,1020.52,2046.02,3018.99,2855.01,3201.99,600.18,605.02,21.85,0000 0000 0000 0000 000000
2017-11-18 12:33:06,0.03,1.07,0.00,19.74,23.12,26.37,14.21,48.04,1020.52,2046.01,3018.17,2855.00,3201.43,599.86,604.85,21.90,0000 0000 0000 0000 000000
2017-11-18 12:38:07,0.01,1.08,0.00,19.73,23.12,26.34,14.21,48.07,1020.52,2046.01,3017.65,2854.98,3201.01,600.10,605.14,21.95,0000 0000 0000 0000 000000
2017-11-18 12:43:09,0.00,1.08,0.00,19.76,23.12,26.26,14.19,48.07,1020.52,2046.01,3017.02,2854.98,3200.99,600.32,605.14,22.00,0000 0000 0000 0000 000000
2017-11-18 12:48:10,0.03,1.08,0.00,19.75,23.12,26.29,14.01,48.07,1020.52,2046.02,3016.54,2854.82,3200.48,599.65,604.67,22.05,0000 0000 0000 0000 000000
2017-11-18 12:53:11,0.02,1.08,0.00,19.76,23.12,26.33,14.15,48.05,1020.52,2046.02,3016.00,2854.40,3200.02,600.14,605.08,22.10,0000 0000 0000 0000 000000
2017-11-18 12:58:13,0.02,1.08,0.00,19.77,23.14,26.27,14.10,48.07,1020.52,2046.00,3015.57,2854.11,3199.99,600.01,604.98,22.15,0000 0000 0000 0000 000000